Time,TemperatureF,DewpointF,PressureIn,WindDirection,WindDirectionDegrees,WindSpeedMPH,WindSpeedGustMPH,Humidity,HourlyPrecipIn,Conditions,Clouds,dailyrainin,SoftwareType,DateUTC
2013-03-14 00:00:00,47.1,26.3,30.36,NW,305,0.0,0.0,44,0.00,,---,0.00,VWS V14.01,2013-03-14 05:00:00,
2013-03-14 00:05:00,46.7,27.0,30.36,WNW,285,0.0,0.0,46,0.00,,---,0.00,VWS V14.01,2013-03-14 05:05:00,
2013-03-14 00:10:00,46.1,27.0,30.36,WNW,285,0.0,0.0,47,0.00,,---,0.00,VWS V14.01,2013-03-14 05:10:00,
2013-03-14 00:15:00,45.4,26.9,30.36,WNW,285,0.0,0.0,48,0.00,,---,0.00,VWS V14.01,2013-03-14 05:15:00,
2013-03-14 00:20:00,44.7,26.2,30.36,WNW,285,0.0,0.0,48,0.00,,---,0.00,VWS V14.01,2013-03-14 05:20:00,
2013-03-14 00:25:00,44.5,26.5,30.36,WNW,283,0.0,1.0,49,0.00,,---,0.00,VWS V14.01,2013-03-14 05:25:00,
2013-03-14 00:30:00,44.4,26.5,30.36,WNW,295,0.0,0.0,49,0.00,,---,0.00,VWS V14.01,2013-03-14 05:30:00,
2013-03-14 00:35:00,44.5,27.0,30.35,WNW,297,0.0,2.0,50,0.00,,---,0.00,VWS V14.01,2013-03-14 05:35:00,
2013-03-14 00:40:00,44.5,27.0,30.35,West,262,0.0,2.0,50,0.00,,---,0.00,VWS V14.01,2013-03-14 05:40:00,
2013-03-14 00:45:00,44.6,27.1,30.35,NW,307,0.0,2.0,50,0.00,,---,0.00,VWS V14.01,2013-03-14 05:45:00,
2013-03-14 00:50:00,44.7,27.2,30.35,West,266,0.0,2.0,50,0.00,,---,0.00,VWS V14.01,2013-03-14 05:50:00,
2013-03-14 00:55:00,44.9,27.4,30.35,NW,308,0.0,4.0,50,0.00,,---,0.00,VWS V14.01,2013-03-14 05:55:00,
2013-03-14 01:00:00,45.1,27.1,30.35,NW,318,0.0,0.0,49,0.00,,---,0.00,VWS V14.01,2013-03-14 06:00:00,
2013-03-14 01:05:00,45.1,27.1,30.35,NNW,328,0.0,2.0,49,0.00,,---,0.00,VWS V14.01,2013-03-14 06:05:00,
2013-03-14 01:10:00,45.1,27.6,30.35,WNW,293,0.0,3.0,50,0.00,,---,0.00,VWS V14.01,2013-03-14 06:10:00,
2013-03-14 01:15:00,45.1,27.6,30.35,West,263,0.0,3.0,50,0.00,,---,0.00,VWS V14.01,2013-03-14 06:15:00,
2013-03-14 01:20:00,44.9,27.4,30.35,NNW,337,0.0,3.0,50,0.00,,---,0.00,VWS V14.01,2013-03-14 06:20:00,
2013-03-14 01:25:00,44.8,27.3,30.35,NNW,346,0.0,3.0,50,0.00,,---,0.00,VWS V14.01,2013-03-14 06:25:00,
2013-03-14 01:30:00,44.7,27.2,30.36,NNW,328,0.0,1.0,50,0.00,,---,0.00,VWS V14.01,2013-03-14 06:30:00,
2013-03-14 01:35:00,44.6,27.6,30.36,SW,221,0.0,4.0,51,0.00,,---,0.00,VWS V14.01,2013-03-14 06:35:00,
2013-03-14 01:40:00,44.5,27.5,30.35,NW,325,1.0,4.0,51,0.00,,---,0.00,VWS V14.01,2013-03-14 06:40:00,
2013-03-14 01:45:00,44.4,27.4,30.35,NW,319,2.0,4.0,51,0.00,,---,0.00,VWS V14.01,2013-03-14 06:45:00,
2013-03-14 01:50:00,44.3,27.3,30.36,NNW,330,0.0,4.0,51,0.00,,---,0.00,VWS V14.01,2013-03-14 06:50:00,
2013-03-14 01:55:00,44.2,27.2,30.36,WSW,257,1.0,4.0,51,0.00,,---,0.00,VWS V14.01,2013-03-14 06:55:00,
2013-03-14 02:00:00,44.1,27.1,30.36,West,264,0.0,4.0,51,0.00,,---,0.00,VWS V14.01,2013-03-14 07:00:00,
2013-03-14 02:05:00,44.1,27.6,30.36,WNW,295,0.0,4.0,52,0.00,,---,0.00,VWS V14.01,2013-03-14 07:05:00,
2013-03-14 02:10:00,44.0,27.0,30.36,WSW,249,1.0,4.0,51,0.00,,---,0.00,VWS V14.01,2013-03-14 07:10:00,
2013-03-14 02:15:00,43.9,27.4,30.35,WNW,297,0.0,4.0,52,0.00,,---,0.00,VWS V14.01,2013-03-14 07:15:00,
2013-03-14 02:20:00,43.7,27.2,30.36,NNE,29,1.0,4.0,52,0.00,,---,0.00,VWS V14.01,2013-03-14 07:20:00,
2013-03-14 02:25:00,43.6,27.1,30.36,NW,312,0.0,4.0,52,0.00,,---,0.00,VWS V14.01,2013-03-14 07:25:00,
2013-03-14 02:30:00,43.5,27.5,30.36,NW,307,0.0,1.0,53,0.00,,---,0.00,VWS V14.01,2013-03-14 07:30:00,
2013-03-14 02:35:00,43.4,27.4,30.36,NW,312,0.0,3.0,53,0.00,,---,0.00,VWS V14.01,2013-03-14 07:35:00,
2013-03-14 02:40:00,43.2,27.2,30.36,NNE,12,0.0,3.0,53,0.00,,---,0.00,VWS V14.01,2013-03-14 07:40:00,
2013-03-14 02:45:00,43.1,27.1,30.36,NNW,342,0.0,3.0,53,0.00,,---,0.00,VWS V14.01,2013-03-14 07:45:00,
2013-03-14 02:50:00,43.0,27.0,30.36,NW,314,0.0,3.0,53,0.00,,---,0.00,VWS V14.01,2013-03-14 07:50:00,
2013-03-14 02:55:00,42.9,27.4,30.36,NNW,327,0.0,3.0,54,0.00,,---,0.00,VWS V14.01,2013-03-14 07:55:00,
2013-03-14 03:00:00,42.7,27.2,30.36,NE,43,1.0,1.0,54,0.00,,---,0.00,VWS V14.01,2013-03-14 08:00:00,
2013-03-14 03:05:00,42.6,27.1,30.36,West,259,0.0,2.0,54,0.00,,---,0.00,VWS V14.01,2013-03-14 08:05:00,
2013-03-14 03:10:00,42.4,27.0,30.36,North,4,0.0,2.0,54,0.00,,---,0.00,VWS V14.01,2013-03-14 08:10:00,
2013-03-14 03:15:00,42.3,27.3,30.36,WNW,290,0.0,3.0,55,0.00,,---,0.00,VWS V14.01,2013-03-14 08:15:00,
2013-03-14 03:20:00,42.2,27.2,30.36,ENE,70,0.0,3.0,55,0.00,,---,0.00,VWS V14.01,2013-03-14 08:20:00,
2013-03-14 03:25:00,42.1,27.1,30.36,North,8,0.0,3.0,55,0.00,,---,0.00,VWS V14.01,2013-03-14 08:25:00,
2013-03-14 03:30:00,42.0,27.0,30.36,NNW,348,1.0,3.0,55,0.00,,---,0.00,VWS V14.01,2013-03-14 08:30:00,
2013-03-14 03:35:00,41.9,26.9,30.36,NNW,330,0.0,3.0,55,0.00,,---,0.00,VWS V14.01,2013-03-14 08:35:00,
2013-03-14 03:40:00,41.9,26.9,30.36,North,357,0.0,3.0,55,0.00,,---,0.00,VWS V14.01,2013-03-14 08:40:00,
2013-03-14 03:45:00,41.7,27.2,30.36,WNW,297,0.0,3.0,56,0.00,,---,0.00,VWS V14.01,2013-03-14 08:45:00,
2013-03-14 03:50:00,41.6,27.1,30.36,NNW,339,0.0,3.0,56,0.00,,---,0.00,VWS V14.01,2013-03-14 08:50:00,
2013-03-14 03:55:00,41.4,27.3,30.36,West,281,0.0,3.0,57,0.00,,---,0.00,VWS V14.01,2013-03-14 08:55:00,
2013-03-14 04:00:00,41.2,27.1,30.36,WSW,252,0.0,0.0,57,0.00,,---,0.00,VWS V14.01,2013-03-14 09:00:00,
2013-03-14 04:05:00,41.0,27.4,30.36,NE,44,0.0,3.0,58,0.00,,---,0.00,VWS V14.01,2013-03-14 09:05:00,
2013-03-14 04:10:00,40.9,26.9,30.35,NNW,340,0.0,3.0,57,0.00,,---,0.00,VWS V14.01,2013-03-14 09:10:00,
2013-03-14 04:15:00,40.8,27.2,30.36,NNW,332,0.0,3.0,58,0.00,,---,0.00,VWS V14.01,2013-03-14 09:15:00,
2013-03-14 04:20:00,40.6,27.4,30.36,NNW,343,0.0,3.0,59,0.00,,---,0.00,VWS V14.01,2013-03-14 09:20:00,
2013-03-14 04:25:00,40.2,27.4,30.36,NNW,345,0.0,3.0,60,0.00,,---,0.00,VWS V14.01,2013-03-14 09:25:00,
2013-03-14 04:30:00,39.9,27.6,30.36,NNW,344,0.0,0.0,61,0.00,,---,0.00,VWS V14.01,2013-03-14 09:30:00,
2013-03-14 04:35:00,39.3,27.4,30.36,NNW,345,0.0,1.0,62,0.00,,---,0.00,VWS V14.01,2013-03-14 09:35:00,
2013-03-14 04:40:00,39.1,27.2,30.36,NNW,345,0.0,1.0,62,0.00,,---,0.00,VWS V14.01,2013-03-14 09:40:00,
2013-03-14 04:45:00,38.8,27.3,30.36,NNW,328,0.0,1.0,63,0.00,,---,0.00,VWS V14.01,2013-03-14 09:45:00,
2013-03-14 04:50:00,38.7,27.2,30.36,North,351,0.0,1.0,63,0.00,,---,0.00,VWS V14.01,2013-03-14 09:50:00,
2013-03-14 04:55:00,38.7,27.2,30.36,NE,37,0.0,3.0,63,0.00,,---,0.00,VWS V14.01,2013-03-14 09:55:00,
2013-03-14 05:00:00,38.8,27.3,30.36,NNW,347,0.0,0.0,63,0.00,,---,0.00,VWS V14.01,2013-03-14 10:00:00,
2013-03-14 05:05:00,39.0,27.1,30.36,NNE,27,0.0,5.0,62,0.00,,---,0.00,VWS V14.01,2013-03-14 10:05:00,
2013-03-14 05:10:00,39.0,27.1,30.36,ESE,109,0.0,5.0,62,0.00,,---,0.00,VWS V14.01,2013-03-14 10:10:00,
2013-03-14 05:15:00,39.1,27.2,30.36,NW,321,0.0,5.0,62,0.00,,---,0.00,VWS V14.01,2013-03-14 10:15:00,
2013-03-14 05:20:00,39.1,27.2,30.36,NE,51,0.0,5.0,62,0.00,,---,0.00,VWS V14.01,2013-03-14 10:20:00,
2013-03-14 05:25:00,39.1,27.2,30.37,NW,323,0.0,5.0,62,0.00,,---,0.00,VWS V14.01,2013-03-14 10:25:00,
2013-03-14 05:30:00,39.1,26.8,30.37,NNW,345,1.0,3.0,61,0.00,,---,0.00,VWS V14.01,2013-03-14 10:30:00,
2013-03-14 05:34:00,39.1,26.8,30.37,NE,51,0.0,3.0,61,0.00,,---,0.00,VWS V14.01,2013-03-14 10:34:00,
2013-03-14 05:39:00,39.0,27.1,30.37,NE,51,1.0,4.0,62,0.00,,---,0.00,VWS V14.01,2013-03-14 10:39:00,
2013-03-14 05:44:00,38.9,26.6,30.36,NNE,25,3.0,4.0,61,0.00,,---,0.00,VWS V14.01,2013-03-14 10:44:00,
2013-03-14 05:49:00,38.9,26.6,30.37,NNE,30,2.0,5.0,61,0.00,,---,0.00,VWS V14.01,2013-03-14 10:49:00,
2013-03-14 05:54:00,38.8,26.5,30.37,NE,48,1.0,5.0,61,0.00,,---,0.00,VWS V14.01,2013-03-14 10:54:00,
2013-03-14 05:59:00,38.8,26.9,30.37,NNE,20,2.0,3.0,62,0.00,,---,0.00,VWS V14.01,2013-03-14 10:59:00,
2013-03-14 06:00:00,38.8,26.9,30.37,NW,325,1.0,5.0,62,0.00,,---,0.00,VWS V14.01,2013-03-14 11:00:00,
2013-03-14 06:04:00,38.7,26.8,30.37,NNE,25,2.0,5.0,62,0.00,,---,0.00,VWS V14.01,2013-03-14 11:04:00,
2013-03-14 06:09:00,38.5,26.6,30.37,NNE,20,1.0,5.0,62,0.00,,---,0.00,VWS V14.01,2013-03-14 11:09:00,
2013-03-14 06:14:00,38.4,26.5,30.38,NNW,338,0.0,5.0,62,0.00,,---,0.00,VWS V14.01,2013-03-14 11:14:00,
2013-03-14 06:19:00,38.3,26.4,30.38,NNE,29,4.0,6.0,62,0.00,,---,0.00,VWS V14.01,2013-03-14 11:19:00,
2013-03-14 06:25:00,38.3,26.4,30.38,North,8,3.0,6.0,62,0.00,,---,0.00,VWS V14.01,2013-03-14 11:25:00,
2013-03-14 06:30:00,38.2,26.3,30.38,NNE,29,1.0,2.0,62,0.00,,---,0.00,VWS V14.01,2013-03-14 11:30:00,
2013-03-14 06:34:00,38.1,26.2,30.38,NE,47,0.0,6.0,62,0.00,,---,0.00,VWS V14.01,2013-03-14 11:34:00,
2013-03-14 06:39:00,38.1,26.2,30.38,NNE,27,0.0,6.0,62,0.00,,---,0.00,VWS V14.01,2013-03-14 11:39:00,
2013-03-14 06:44:00,38.0,26.1,30.38,NNE,19,4.0,6.0,62,0.00,,---,0.00,VWS V14.01,2013-03-14 11:44:00,
2013-03-14 06:49:00,38.0,26.1,30.38,NE,39,0.0,6.0,62,0.00,,---,0.00,VWS V14.01,2013-03-14 11:49:00,
2013-03-14 06:54:00,37.9,26.5,30.38,NE,34,0.0,6.0,63,0.00,,---,0.00,VWS V14.01,2013-03-14 11:54:00,
2013-03-14 06:59:00,37.7,26.3,30.38,ENE,75,0.0,1.0,63,0.00,,---,0.00,VWS V14.01,2013-03-14 11:59:00,
2013-03-14 07:00:00,37.7,26.2,30.39,NNE,13,0.0,6.0,63,0.00,,---,0.00,VWS V14.01,2013-03-14 12:00:00,
2013-03-14 07:04:00,37.5,26.5,30.39,NNW,337,0.0,3.0,64,0.00,,---,0.00,VWS V14.01,2013-03-14 12:04:00,
2013-03-14 07:09:00,37.4,26.4,30.39,NNW,341,0.0,3.0,64,0.00,,---,0.00,VWS V14.01,2013-03-14 12:09:00,
2013-03-14 07:14:00,37.3,26.3,30.40,NNE,29,1.0,6.0,64,0.00,,---,0.00,VWS V14.01,2013-03-14 12:14:00,
2013-03-14 07:19:00,37.4,26.4,30.40,North,1,0.0,6.0,64,0.00,,---,0.00,VWS V14.01,2013-03-14 12:19:00,
2013-03-14 07:24:00,37.5,26.5,30.41,NNE,22,0.0,6.0,64,0.00,,---,0.00,VWS V14.01,2013-03-14 12:24:00,
2013-03-14 07:29:00,37.6,26.5,30.41,East,84,1.0,3.0,64,0.00,,---,0.00,VWS V14.01,2013-03-14 12:29:00,
2013-03-14 07:30:00,37.6,26.5,30.41,NW,319,3.0,6.0,64,0.00,,---,0.00,VWS V14.01,2013-03-14 12:30:00,
2013-03-14 07:34:00,37.9,26.8,30.41,NNE,15,1.0,5.0,64,0.00,,---,0.00,VWS V14.01,2013-03-14 12:34:00,
2013-03-14 07:39:00,38.5,27.0,30.41,NW,319,1.0,7.0,63,0.00,,---,0.00,VWS V14.01,2013-03-14 12:39:00,
2013-03-14 07:44:00,38.9,27.0,30.41,North,6,1.0,7.0,62,0.00,,---,0.00,VWS V14.01,2013-03-14 12:44:00,
2013-03-14 07:49:00,39.2,26.9,30.41,North,360,3.0,7.0,61,0.00,,---,0.00,VWS V14.01,2013-03-14 12:49:00,
2013-03-14 07:54:00,39.2,26.9,30.41,NNE,13,5.0,7.0,61,0.00,,---,0.00,VWS V14.01,2013-03-14 12:54:00,
2013-03-14 07:59:00,39.4,27.1,30.42,NNW,333,0.0,4.0,61,0.00,,---,0.00,VWS V14.01,2013-03-14 12:59:00,
2013-03-14 08:00:00,39.4,27.1,30.42,NNE,29,4.0,7.0,61,0.00,,---,0.00,VWS V14.01,2013-03-14 13:00:00,
2013-03-14 08:04:00,39.7,27.4,30.42,NNE,22,3.0,7.0,61,0.00,,---,0.00,VWS V14.01,2013-03-14 13:04:00,
2013-03-14 08:09:00,39.9,27.2,30.42,ENE,63,2.0,8.0,60,0.00,,---,0.00,VWS V14.01,2013-03-14 13:09:00,
2013-03-14 08:14:00,40.2,27.0,30.42,East,96,4.0,9.0,59,0.00,,---,0.00,VWS V14.01,2013-03-14 13:14:00,
2013-03-14 08:19:00,40.7,27.5,30.43,ENE,66,5.0,10.0,59,0.00,,---,0.00,VWS V14.01,2013-03-14 13:19:00,
2013-03-14 08:24:00,41.1,27.5,30.43,NNW,328,5.0,10.0,58,0.00,,---,0.00,VWS V14.01,2013-03-14 13:24:00,
2013-03-14 08:29:00,41.5,27.4,30.43,North,8,2.0,6.0,57,0.00,,---,0.00,VWS V14.01,2013-03-14 13:29:00,
2013-03-14 08:30:00,41.4,27.3,30.43,NNW,345,6.0,10.0,57,0.00,,---,0.00,VWS V14.01,2013-03-14 13:30:00,
2013-03-14 08:34:00,41.9,27.4,30.44,NE,54,3.0,7.0,56,0.00,,---,0.00,VWS V14.01,2013-03-14 13:34:00,
2013-03-14 08:39:00,42.4,27.8,30.44,ENE,64,4.0,7.0,56,0.00,,---,0.00,VWS V14.01,2013-03-14 13:39:00,
2013-03-14 08:44:00,42.8,27.3,30.44,North,356,3.0,7.0,54,0.00,,---,0.00,VWS V14.01,2013-03-14 13:44:00,
2013-03-14 08:49:00,43.1,27.6,30.44,NW,304,1.0,7.0,54,0.00,,---,0.00,VWS V14.01,2013-03-14 13:49:00,
2013-03-14 08:54:00,43.3,27.3,30.44,West,276,0.0,9.0,53,0.00,,---,0.00,VWS V14.01,2013-03-14 13:54:00,
2013-03-14 08:59:00,43.8,27.3,30.44,NNE,13,1.0,3.0,52,0.00,,---,0.00,VWS V14.01,2013-03-14 13:59:00,
2013-03-14 09:00:00,43.8,27.3,30.44,NNE,27,2.0,9.0,52,0.00,,---,0.00,VWS V14.01,2013-03-14 14:00:00,
2013-03-14 09:04:00,44.5,27.5,30.44,NE,50,1.0,7.0,51,0.00,,---,0.00,VWS V14.01,2013-03-14 14:04:00,
2013-03-14 09:09:00,45.2,27.7,30.44,NNE,19,3.0,7.0,50,0.00,,---,0.00,VWS V14.01,2013-03-14 14:09:00,
2013-03-14 09:14:00,45.7,27.1,30.44,North,356,0.0,7.0,48,0.00,,---,0.00,VWS V14.01,2013-03-14 14:14:00,
2013-03-14 09:19:00,46.0,27.4,30.44,NW,311,6.0,9.0,48,0.00,,---,0.00,VWS V14.01,2013-03-14 14:19:00,
2013-03-14 09:24:00,46.4,27.3,30.44,NNE,32,3.0,9.0,47,0.00,,---,0.00,VWS V14.01,2013-03-14 14:24:00,
2013-03-14 09:29:00,46.5,25.8,30.45,NNW,336,6.0,6.0,44,0.00,,---,0.00,VWS V14.01,2013-03-14 14:29:00,
2013-03-14 09:30:00,46.5,25.8,30.45,NE,36,2.0,10.0,44,0.00,,---,0.00,VWS V14.01,2013-03-14 14:30:00,
2013-03-14 09:34:00,46.7,26.0,30.44,NNW,343,3.0,12.0,44,0.00,,---,0.00,VWS V14.01,2013-03-14 14:34:00,
2013-03-14 09:39:00,47.1,25.8,30.44,NNW,340,3.0,12.0,43,0.00,,---,0.00,VWS V14.01,2013-03-14 14:39:00,
2013-03-14 09:44:00,47.5,26.1,30.44,NNW,340,3.0,12.0,43,0.00,,---,0.00,VWS V14.01,2013-03-14 14:44:00,
2013-03-14 09:49:00,47.9,25.9,30.44,ENE,66,4.0,12.0,42,0.00,,---,0.00,VWS V14.01,2013-03-14 14:49:00,
2013-03-14 09:54:00,48.1,24.3,30.45,WSW,256,1.0,12.0,39,0.00,,---,0.00,VWS V14.01,2013-03-14 14:54:00,
2013-03-14 09:59:00,48.4,25.2,30.44,East,96,2.0,3.0,40,0.00,,---,0.00,VWS V14.01,2013-03-14 14:59:00,
2013-03-14 10:00:00,48.4,25.2,30.44,ESE,111,3.0,12.0,40,0.00,,---,0.00,VWS V14.01,2013-03-14 15:00:00,
2013-03-14 10:04:00,48.6,24.8,30.45,North,354,8.0,9.0,39,0.00,,---,0.00,VWS V14.01,2013-03-14 15:04:00,
2013-03-14 10:09:00,48.9,24.4,30.44,NE,37,4.0,11.0,38,0.00,,---,0.00,VWS V14.01,2013-03-14 15:09:00,
2013-03-14 10:14:00,49.2,24.7,30.44,East,85,0.0,11.0,38,0.00,,---,0.00,VWS V14.01,2013-03-14 15:14:00,
2013-03-14 10:19:00,49.7,25.1,30.44,NE,55,0.0,11.0,38,0.00,,---,0.00,VWS V14.01,2013-03-14 15:19:00,
2013-03-14 10:24:00,50.0,24.1,30.44,NNW,336,7.0,11.0,36,0.00,,---,0.00,VWS V14.01,2013-03-14 15:24:00,
2013-03-14 10:29:00,49.9,24.7,30.43,ESE,102,1.0,2.0,37,0.00,,---,0.00,VWS V14.01,2013-03-14 15:29:00,
2013-03-14 10:30:00,49.9,24.7,30.43,ENE,78,2.0,13.0,37,0.00,,---,0.00,VWS V14.01,2013-03-14 15:30:00,
2013-03-14 10:34:00,50.3,24.4,30.43,NE,50,1.0,9.0,36,0.00,,---,0.00,VWS V14.01,2013-03-14 15:34:00,
2013-03-14 10:39:00,50.7,24.7,30.43,East,79,3.0,10.0,36,0.00,,---,0.00,VWS V14.01,2013-03-14 15:39:00,
2013-03-14 10:44:00,50.9,24.2,30.43,ESE,115,4.0,10.0,35,0.00,,---,0.00,VWS V14.01,2013-03-14 15:44:00,
2013-03-14 10:49:00,51.5,26.8,30.42,SW,214,0.0,10.0,38,0.00,,---,0.00,VWS V14.01,2013-03-14 15:49:00,
2013-03-14 10:54:00,52.0,25.2,30.42,ENE,58,2.0,11.0,35,0.00,,---,0.00,VWS V14.01,2013-03-14 15:54:00,
2013-03-14 10:59:00,52.6,27.1,30.42,North,1,0.0,0.0,37,0.00,,---,0.00,VWS V14.01,2013-03-14 15:59:00,
2013-03-14 11:00:00,52.5,27.0,30.42,NW,325,1.0,11.0,37,0.00,,---,0.00,VWS V14.01,2013-03-14 16:00:00,
2013-03-14 11:04:00,53.3,25.0,30.42,NE,43,2.0,8.0,33,0.00,,---,0.00,VWS V14.01,2013-03-14 16:04:00,
2013-03-14 11:09:00,53.4,25.8,30.42,ENE,60,3.0,8.0,34,0.00,,---,0.00,VWS V14.01,2013-03-14 16:09:00,
2013-03-14 11:14:00,53.3,25.0,30.42,ENE,65,1.0,10.0,33,0.00,,---,0.00,VWS V14.01,2013-03-14 16:14:00,
2013-03-14 11:19:00,53.6,24.5,30.42,NE,56,4.0,10.0,32,0.00,,---,0.00,VWS V14.01,2013-03-14 16:19:00,
2013-03-14 11:24:00,53.6,23.7,30.42,North,355,2.0,11.0,31,0.00,,---,0.00,VWS V14.01,2013-03-14 16:24:00,
2013-03-14 11:29:00,53.8,23.1,30.41,North,8,7.0,13.0,30,0.00,,---,0.00,VWS V14.01,2013-03-14 16:29:00,
2013-03-14 11:30:00,53.8,23.1,30.41,North,8,7.0,13.0,30,0.00,,---,0.00,VWS V14.01,2013-03-14 16:30:00,
2013-03-14 11:34:00,53.8,23.1,30.41,NNE,13,3.0,11.0,30,0.00,,---,0.00,VWS V14.01,2013-03-14 16:34:00,
2013-03-14 11:39:00,54.1,23.4,30.41,ENE,57,2.0,11.0,30,0.00,,---,0.00,VWS V14.01,2013-03-14 16:39:00,
2013-03-14 11:44:00,54.8,24.0,30.41,NNE,18,4.0,11.0,30,0.00,,---,0.00,VWS V14.01,2013-03-14 16:44:00,
2013-03-14 11:49:00,55.3,21.9,30.41,NNE,15,4.0,11.0,27,0.00,,---,0.00,VWS V14.01,2013-03-14 16:49:00,
2013-03-14 11:54:00,55.6,23.0,30.41,ENE,58,3.0,11.0,28,0.00,,---,0.00,VWS V14.01,2013-03-14 16:54:00,
2013-03-14 11:59:00,55.7,22.3,30.41,North,359,3.0,11.0,27,0.00,,---,0.00,VWS V14.01,2013-03-14 16:59:00,
2013-03-14 12:00:00,55.7,22.2,30.40,North,359,3.0,11.0,27,0.00,,---,0.00,VWS V14.01,2013-03-14 17:00:00,
2013-03-14 12:04:00,56.5,23.8,30.40,NW,318,3.0,7.0,28,0.00,,---,0.00,VWS V14.01,2013-03-14 17:04:00,
2013-03-14 12:09:00,57.0,22.5,30.40,North,356,4.0,9.0,26,0.00,,---,0.00,VWS V14.01,2013-03-14 17:09:00,
2013-03-14 12:14:00,57.3,22.7,30.40,WSW,240,1.0,9.0,26,0.00,,---,0.00,VWS V14.01,2013-03-14 17:14:00,
2013-03-14 12:19:00,57.3,21.8,30.40,NW,318,4.0,9.0,25,0.00,,---,0.00,VWS V14.01,2013-03-14 17:19:00,
2013-03-14 12:24:00,57.3,21.8,30.40,ENE,70,3.0,9.0,25,0.00,,---,0.00,VWS V14.01,2013-03-14 17:24:00,
2013-03-14 12:29:00,57.4,22.8,30.40,NE,47,4.0,9.0,26,0.00,,---,0.00,VWS V14.01,2013-03-14 17:29:00,
2013-03-14 12:30:00,57.4,22.8,30.40,NE,46,3.0,9.0,26,0.00,,---,0.00,VWS V14.01,2013-03-14 17:30:00,
2013-03-14 12:34:00,57.6,23.9,30.39,NNE,29,5.0,6.0,27,0.00,,---,0.00,VWS V14.01,2013-03-14 17:34:00,
2013-03-14 12:39:00,57.9,22.3,30.39,NW,315,2.0,8.0,25,0.00,,---,0.00,VWS V14.01,2013-03-14 17:39:00,
2013-03-14 12:44:00,58.5,22.8,30.38,NNE,26,2.0,8.0,25,0.00,,---,0.00,VWS V14.01,2013-03-14 17:44:00,
2013-03-14 12:49:00,58.7,23.0,30.38,North,6,0.0,9.0,25,0.00,,---,0.00,VWS V14.01,2013-03-14 17:49:00,
2013-03-14 12:54:00,59.1,20.3,30.38,North,354,5.0,9.0,22,0.00,,---,0.00,VWS V14.01,2013-03-14 17:54:00,
2013-03-14 12:59:00,59.2,20.4,30.38,NE,41,1.0,9.0,22,0.00,,---,0.00,VWS V14.01,2013-03-14 17:59:00,
2013-03-14 13:00:00,59.2,20.4,30.38,NE,41,1.0,9.0,22,0.00,,---,0.00,VWS V14.01,2013-03-14 18:00:00,
2013-03-14 13:04:00,58.8,19.0,30.38,NW,325,5.0,10.0,21,0.00,,---,0.00,VWS V14.01,2013-03-14 18:04:00,
2013-03-14 13:09:00,58.9,21.2,30.37,NNE,26,1.0,10.0,23,0.00,,---,0.00,VWS V14.01,2013-03-14 18:09:00,
2013-03-14 13:14:00,59.5,20.6,30.37,NNE,25,0.0,10.0,22,0.00,,---,0.00,VWS V14.01,2013-03-14 18:14:00,
2013-03-14 13:19:00,60.0,21.1,30.37,NW,316,1.0,10.0,22,0.00,,---,0.00,VWS V14.01,2013-03-14 18:19:00,
2013-03-14 13:24:00,60.4,20.3,30.37,East,87,3.0,10.0,21,0.00,,---,0.00,VWS V14.01,2013-03-14 18:24:00,
2013-03-14 13:29:00,60.4,21.4,30.37,ENE,58,4.0,10.0,22,0.00,,---,0.00,VWS V14.01,2013-03-14 18:29:00,
2013-03-14 13:30:00,60.4,21.4,30.37,ENE,58,4.0,10.0,22,0.00,,---,0.00,VWS V14.01,2013-03-14 18:30:00,
2013-03-14 13:34:00,60.8,21.7,30.37,WNW,302,0.0,6.0,22,0.00,,---,0.00,VWS V14.01,2013-03-14 18:34:00,
2013-03-14 13:39:00,61.5,22.3,30.36,North,8,1.0,6.0,22,0.00,,---,0.00,VWS V14.01,2013-03-14 18:39:00,
2013-03-14 13:44:00,61.8,22.6,30.36,NNE,20,6.0,7.0,22,0.00,,---,0.00,VWS V14.01,2013-03-14 18:44:00,
2013-03-14 13:49:00,62.1,22.8,30.36,WNW,288,1.0,7.0,22,0.00,,---,0.00,VWS V14.01,2013-03-14 18:49:00,
2013-03-14 13:54:00,62.8,23.4,30.36,East,101,2.0,7.0,22,0.00,,---,0.00,VWS V14.01,2013-03-14 18:54:00,
2013-03-14 13:59:00,62.5,22.1,30.35,NE,46,0.0,0.0,21,0.00,,---,0.00,VWS V14.01,2013-03-14 18:59:00,
2013-03-14 14:00:00,62.5,22.1,30.35,NE,47,0.0,7.0,21,0.00,,---,0.00,VWS V14.01,2013-03-14 19:00:00,
2013-03-14 14:04:00,62.7,23.3,30.35,North,11,3.0,6.0,22,0.00,,---,0.00,VWS V14.01,2013-03-14 19:04:00,
2013-03-14 14:09:00,62.6,22.1,30.35,NNE,24,3.0,12.0,21,0.00,,---,0.00,VWS V14.01,2013-03-14 19:09:00,
2013-03-14 14:14:00,63.0,22.5,30.34,West,280,3.0,12.0,21,0.00,,---,0.00,VWS V14.01,2013-03-14 19:14:00,
2013-03-14 14:19:00,63.2,23.8,30.34,North,8,2.0,12.0,22,0.00,,---,0.00,VWS V14.01,2013-03-14 19:19:00,
2013-03-14 14:24:00,63.9,24.3,30.33,SSW,204,1.0,12.0,22,0.00,,---,0.00,VWS V14.01,2013-03-14 19:24:00,
2013-03-14 14:29:00,64.5,23.7,30.34,NNW,341,1.0,2.0,21,0.00,,---,0.00,VWS V14.01,2013-03-14 19:29:00,
2013-03-14 14:30:00,64.5,23.7,30.34,NNE,19,2.0,12.0,21,0.00,,---,0.00,VWS V14.01,2013-03-14 19:30:00,
2013-03-14 14:34:00,64.1,24.5,30.33,NNW,336,4.0,6.0,22,0.00,,---,0.00,VWS V14.01,2013-03-14 19:34:00,
2013-03-14 14:39:00,63.9,22.1,30.33,NNE,30,1.0,8.0,20,0.00,,---,0.00,VWS V14.01,2013-03-14 19:39:00,
2013-03-14 14:44:00,63.7,23.1,30.33,WSW,238,1.0,8.0,21,0.00,,---,0.00,VWS V14.01,2013-03-14 19:44:00,
2013-03-14 14:49:00,63.9,23.2,30.33,East,88,3.0,8.0,21,0.00,,---,0.00,VWS V14.01,2013-03-14 19:49:00,
2013-03-14 14:54:00,63.7,21.9,30.32,NNE,33,6.0,10.0,20,0.00,,---,0.00,VWS V14.01,2013-03-14 19:54:00,
2013-03-14 14:59:00,63.4,21.7,30.32,ENE,61,2.0,2.0,20,0.00,,---,0.00,VWS V14.01,2013-03-14 19:59:00,
2013-03-14 15:00:00,63.4,21.7,30.32,East,79,1.0,10.0,20,0.00,,---,0.00,VWS V14.01,2013-03-14 20:00:00,
2013-03-14 15:04:00,63.5,22.9,30.32,SE,141,2.0,8.0,21,0.00,,---,0.00,VWS V14.01,2013-03-14 20:04:00,
2013-03-14 15:09:00,63.8,23.1,30.32,SW,233,0.0,8.0,21,0.00,,---,0.00,VWS V14.01,2013-03-14 20:09:00,
2013-03-14 15:14:00,63.9,23.2,30.31,ENE,63,4.0,8.0,21,0.00,,---,0.00,VWS V14.01,2013-03-14 20:14:00,
2013-03-14 15:19:00,63.7,24.2,30.31,NNE,23,2.0,8.0,22,0.00,,---,0.00,VWS V14.01,2013-03-14 20:19:00,
2013-03-14 15:24:00,64.0,23.3,30.30,WSW,250,1.0,8.0,21,0.00,,---,0.00,VWS V14.01,2013-03-14 20:24:00,
2013-03-14 15:29:00,64.1,23.4,30.30,NW,319,2.0,2.0,21,0.00,,---,0.00,VWS V14.01,2013-03-14 20:29:00,
2013-03-14 15:30:00,64.1,23.4,30.30,North,354,1.0,8.0,21,0.00,,---,0.00,VWS V14.01,2013-03-14 20:30:00,
2013-03-14 15:34:00,64.1,23.4,30.30,NW,304,0.0,4.0,21,0.00,,---,0.00,VWS V14.01,2013-03-14 20:34:00,
2013-03-14 15:39:00,64.2,23.5,30.30,SSW,195,0.0,4.0,21,0.00,,---,0.00,VWS V14.01,2013-03-14 20:39:00,
2013-03-14 15:44:00,64.5,24.8,30.30,NE,37,3.0,5.0,22,0.00,,---,0.00,VWS V14.01,2013-03-14 20:44:00,
2013-03-14 15:49:00,64.5,23.7,30.30,North,4,3.0,6.0,21,0.00,,---,0.00,VWS V14.01,2013-03-14 20:49:00,
2013-03-14 15:54:00,64.5,24.8,30.30,North,8,2.0,9.0,22,0.00,,---,0.00,VWS V14.01,2013-03-14 20:54:00,
2013-03-14 15:59:00,64.2,25.7,30.30,North,353,3.0,4.0,23,0.00,,---,0.00,VWS V14.01,2013-03-14 20:59:00,
2013-03-14 16:00:00,64.2,24.6,30.30,NNE,12,1.0,9.0,22,0.00,,---,0.00,VWS V14.01,2013-03-14 21:00:00,
2013-03-14 16:04:00,64.3,25.7,30.30,NNE,33,0.0,5.0,23,0.00,,---,0.00,VWS V14.01,2013-03-14 21:04:00,
2013-03-14 16:09:00,64.6,24.9,30.30,North,359,2.0,5.0,22,0.00,,---,0.00,VWS V14.01,2013-03-14 21:09:00,
2013-03-14 16:14:00,64.7,26.1,30.30,SE,138,0.0,8.0,23,0.00,,---,0.00,VWS V14.01,2013-03-14 21:14:00,
2013-03-14 16:19:00,64.5,24.8,30.30,NW,326,5.0,8.0,22,0.00,,---,0.00,VWS V14.01,2013-03-14 21:19:00,
2013-03-14 16:24:00,64.3,25.7,30.30,NNW,342,3.0,8.0,23,0.00,,---,0.00,VWS V14.01,2013-03-14 21:24:00,
2013-03-14 16:29:00,64.5,25.9,30.30,WSW,250,2.0,5.0,23,0.00,,---,0.00,VWS V14.01,2013-03-14 21:29:00,
2013-03-14 16:30:00,64.5,25.9,30.29,NNW,333,2.0,8.0,23,0.00,,---,0.00,VWS V14.01,2013-03-14 21:30:00,
2013-03-14 16:34:00,64.7,26.1,30.29,NNE,32,3.0,7.0,23,0.00,,---,0.00,VWS V14.01,2013-03-14 21:34:00,
2013-03-14 16:39:00,64.6,26.0,30.30,North,9,2.0,7.0,23,0.00,,---,0.00,VWS V14.01,2013-03-14 21:39:00,
2013-03-14 16:44:00,64.7,26.1,30.29,WNW,295,2.0,7.0,23,0.00,,---,0.00,VWS V14.01,2013-03-14 21:44:00,
2013-03-14 16:49:00,64.7,27.1,30.29,North,352,1.0,7.0,24,0.00,,---,0.00,VWS V14.01,2013-03-14 21:49:00,
2013-03-14 16:54:00,64.9,27.3,30.29,NNW,337,2.0,7.0,24,0.00,,---,0.00,VWS V14.01,2013-03-14 21:54:00,
2013-03-14 16:59:00,65.0,27.4,30.29,West,274,0.0,1.0,24,0.00,,---,0.00,VWS V14.01,2013-03-14 21:59:00,
2013-03-14 17:00:00,65.0,27.4,30.29,West,269,0.0,7.0,24,0.00,,---,0.00,VWS V14.01,2013-03-14 22:00:00,
2013-03-14 17:11:00,64.8,28.2,30.29,NNE,29,2.0,2.0,25,0.00,,---,0.00,VWS V14.01,2013-03-14 22:11:00,
2013-03-14 17:16:00,64.5,27.9,30.29,WNW,291,0.0,6.0,25,0.00,,---,0.00,VWS V14.01,2013-03-14 22:16:00,
2013-03-14 17:21:00,64.3,27.8,30.29,NW,314,0.0,6.0,25,0.00,,---,0.00,VWS V14.01,2013-03-14 22:21:00,
2013-03-14 17:26:00,64.2,27.7,30.29,North,9,3.0,6.0,25,0.00,,---,0.00,VWS V14.01,2013-03-14 22:26:00,
2013-03-14 17:30:00,64.2,28.6,30.29,ESE,117,0.0,6.0,26,0.00,,---,0.00,VWS V14.01,2013-03-14 22:30:00,
2013-03-14 17:31:00,64.1,28.5,30.29,NE,44,0.0,4.0,26,0.00,,---,0.00,VWS V14.01,2013-03-14 22:31:00,
2013-03-14 17:36:00,63.9,28.4,30.29,ESE,115,1.0,6.0,26,0.00,,---,0.00,VWS V14.01,2013-03-14 22:36:00,
2013-03-14 17:41:00,63.6,28.1,30.29,North,359,2.0,6.0,26,0.00,,---,0.00,VWS V14.01,2013-03-14 22:41:00,
2013-03-14 17:46:00,63.4,28.9,30.29,NNW,344,0.0,6.0,27,0.00,,---,0.00,VWS V14.01,2013-03-14 22:46:00,
2013-03-14 17:51:00,63.4,28.9,30.28,East,93,1.0,6.0,27,0.00,,---,0.00,VWS V14.01,2013-03-14 22:51:00,
2013-03-14 17:56:00,63.2,28.7,30.29,North,5,1.0,6.0,27,0.00,,---,0.00,VWS V14.01,2013-03-14 22:56:00,
2013-03-14 18:00:00,63.1,29.5,30.29,NNW,332,0.0,6.0,28,0.00,,---,0.00,VWS V14.01,2013-03-14 23:00:00,
2013-03-14 18:01:00,63.0,29.4,30.28,WNW,291,0.0,2.0,28,0.00,,---,0.00,VWS V14.01,2013-03-14 23:01:00,
2013-03-14 18:07:00,62.8,28.4,30.29,WNW,283,1.0,3.0,27,0.00,,---,0.00,VWS V14.01,2013-03-14 23:07:00,
2013-03-14 18:12:00,62.7,28.3,30.29,NNE,25,1.0,4.0,27,0.00,,---,0.00,VWS V14.01,2013-03-14 23:12:00,
2013-03-14 18:17:00,62.4,28.9,30.29,NNE,12,1.0,4.0,28,0.00,,---,0.00,VWS V14.01,2013-03-14 23:17:00,
2013-03-14 18:22:00,62.2,29.6,30.29,West,262,0.0,4.0,29,0.00,,---,0.00,VWS V14.01,2013-03-14 23:22:00,
2013-03-14 18:27:00,62.0,29.4,30.29,NNW,333,0.0,4.0,29,0.00,,---,0.00,VWS V14.01,2013-03-14 23:27:00,
2013-03-14 18:30:00,62.0,29.4,30.29,NNW,340,0.0,4.0,29,0.00,,---,0.00,VWS V14.01,2013-03-14 23:30:00,
2013-03-14 18:32:00,61.8,29.2,30.29,NNW,343,1.0,1.0,29,0.00,,---,0.00,VWS V14.01,2013-03-14 23:32:00,
2013-03-14 18:37:00,61.6,29.9,30.29,NE,48,2.0,2.0,30,0.00,,---,0.00,VWS V14.01,2013-03-14 23:37:00,
2013-03-14 18:42:00,61.3,29.6,30.29,North,358,0.0,2.0,30,0.00,,---,0.00,VWS V14.01,2013-03-14 23:42:00,
2013-03-14 18:47:00,60.9,30.1,30.29,North,359,0.0,2.0,31,0.00,,---,0.00,VWS V14.01,2013-03-14 23:47:00,
2013-03-14 18:52:00,60.3,31.8,30.29,North,358,0.0,2.0,34,0.00,,---,0.00,VWS V14.01,2013-03-14 23:52:00,
2013-03-14 18:57:00,59.5,32.5,30.29,North,358,0.0,2.0,36,0.00,,---,0.00,VWS V14.01,2013-03-14 23:57:00,
2013-03-14 19:00:00,59.1,32.2,30.29,North,358,0.0,2.0,36,0.00,,---,0.00,VWS V14.01,2013-03-15 00:00:00,
2013-03-14 19:02:00,58.6,31.8,30.29,North,358,0.0,0.0,36,0.00,,---,0.00,VWS V14.01,2013-03-15 00:02:00,
2013-03-14 19:07:00,57.8,31.7,30.29,North,358,0.0,0.0,37,0.00,,---,0.00,VWS V14.01,2013-03-15 00:07:00,
2013-03-14 19:12:00,57.0,31.7,30.29,North,358,0.0,0.0,38,0.00,,---,0.00,VWS V14.01,2013-03-15 00:12:00,
2013-03-14 19:17:00,56.3,32.3,30.29,North,359,0.0,0.0,40,0.00,,---,0.00,VWS V14.01,2013-03-15 00:17:00,
2013-03-14 19:22:00,55.6,32.3,30.29,North,358,0.0,0.0,41,0.00,,---,0.00,VWS V14.01,2013-03-15 00:22:00,
2013-03-14 19:27:00,55.1,32.4,30.29,North,359,0.0,0.0,42,0.00,,---,0.00,VWS V14.01,2013-03-15 00:27:00,
2013-03-14 19:30:00,54.9,32.8,30.29,North,358,0.0,0.0,43,0.00,,---,0.00,VWS V14.01,2013-03-15 00:30:00,
2013-03-14 19:32:00,54.5,32.5,30.30,North,359,0.0,0.0,43,0.00,,---,0.00,VWS V14.01,2013-03-15 00:32:00,
2013-03-14 19:37:00,53.9,33.1,30.30,North,359,0.0,0.0,45,0.00,,---,0.00,VWS V14.01,2013-03-15 00:37:00,
2013-03-14 19:42:00,53.4,33.2,30.30,North,358,0.0,0.0,46,0.00,,---,0.00,VWS V14.01,2013-03-15 00:42:00,
2013-03-14 19:47:00,53.0,33.3,30.30,North,359,0.0,0.0,47,0.00,,---,0.00,VWS V14.01,2013-03-15 00:47:00,
2013-03-14 19:52:00,52.7,33.6,30.30,North,359,0.0,0.0,48,0.00,,---,0.00,VWS V14.01,2013-03-15 00:52:00,
2013-03-14 19:57:00,52.2,33.6,30.30,North,358,0.0,0.0,49,0.00,,---,0.00,VWS V14.01,2013-03-15 00:57:00,
2013-03-14 20:00:00,52.1,34.0,30.30,North,358,0.0,0.0,50,0.00,,---,0.00,VWS V14.01,2013-03-15 01:00:00,
2013-03-14 20:02:00,51.8,33.8,30.30,North,358,0.0,0.0,50,0.00,,---,0.00,VWS V14.01,2013-03-15 01:02:00,
2013-03-14 20:07:00,51.2,34.2,30.30,North,358,0.0,0.0,52,0.00,,---,0.00,VWS V14.01,2013-03-15 01:07:00,
2013-03-14 20:12:00,50.7,34.7,30.30,North,358,0.0,0.0,54,0.00,,---,0.00,VWS V14.01,2013-03-15 01:12:00,
2013-03-14 20:17:00,50.2,34.7,30.30,North,358,0.0,0.0,55,0.00,,---,0.00,VWS V14.01,2013-03-15 01:17:00,
2013-03-14 20:22:00,49.8,35.2,30.30,North,359,0.0,0.0,57,0.00,,---,0.00,VWS V14.01,2013-03-15 01:22:00,
2013-03-14 20:27:00,49.3,35.6,30.30,North,358,0.0,0.0,59,0.00,,---,0.00,VWS V14.01,2013-03-15 01:27:00,
2013-03-14 20:30:00,49.1,35.4,30.30,North,358,0.0,0.0,59,0.00,,---,0.00,VWS V14.01,2013-03-15 01:30:00,
2013-03-14 20:32:00,48.9,35.6,30.31,North,359,0.0,0.0,60,0.00,,---,0.00,VWS V14.01,2013-03-15 01:32:00,
2013-03-14 20:37:00,48.5,35.3,30.31,North,358,0.0,0.0,60,0.00,,---,0.00,VWS V14.01,2013-03-15 01:37:00,
2013-03-14 20:42:00,48.2,35.8,30.31,North,358,0.0,0.0,62,0.00,,---,0.00,VWS V14.01,2013-03-15 01:42:00,
2013-03-14 20:47:00,47.9,35.9,30.31,North,358,0.0,0.0,63,0.00,,---,0.00,VWS V14.01,2013-03-15 01:47:00,
2013-03-14 20:52:00,47.7,36.9,30.31,North,359,0.0,0.0,66,0.00,,---,0.00,VWS V14.01,2013-03-15 01:52:00,
2013-03-14 20:57:00,47.7,36.9,30.31,North,359,0.0,0.0,66,0.00,,---,0.00,VWS V14.01,2013-03-15 01:57:00,
2013-03-14 21:00:00,47.6,37.2,30.31,North,358,0.0,0.0,67,0.00,,---,0.00,VWS V14.01,2013-03-15 02:00:00,
2013-03-14 21:02:00,47.5,37.1,30.31,North,359,0.0,0.0,67,0.00,,---,0.00,VWS V14.01,2013-03-15 02:02:00,
2013-03-14 21:07:00,47.2,37.2,30.31,North,358,0.0,0.0,68,0.00,,---,0.00,VWS V14.01,2013-03-15 02:07:00,
2013-03-14 21:12:00,47.0,37.7,30.31,North,358,0.0,0.0,70,0.00,,---,0.00,VWS V14.01,2013-03-15 02:12:00,
2013-03-14 21:17:00,47.1,38.2,30.31,North,358,0.0,0.0,71,0.00,,---,0.00,VWS V14.01,2013-03-15 02:17:00,
2013-03-14 21:22:00,47.2,37.9,30.31,North,358,0.0,0.0,70,0.00,,---,0.00,VWS V14.01,2013-03-15 02:22:00,
2013-03-14 21:27:00,47.0,38.1,30.31,North,358,0.0,0.0,71,0.00,,---,0.00,VWS V14.01,2013-03-15 02:27:00,
2013-03-14 21:30:00,46.9,38.0,30.31,North,358,0.0,0.0,71,0.00,,---,0.00,VWS V14.01,2013-03-15 02:30:00,
2013-03-14 21:32:00,47.0,38.1,30.31,West,276,0.0,0.0,71,0.00,,---,0.00,VWS V14.01,2013-03-15 02:32:00,
2013-03-14 21:37:00,47.0,38.1,30.31,West,276,0.0,0.0,71,0.00,,---,0.00,VWS V14.01,2013-03-15 02:37:00,
2013-03-14 21:42:00,47.0,38.5,30.31,West,276,0.0,0.0,72,0.00,,---,0.00,VWS V14.01,2013-03-15 02:42:00,
2013-03-14 21:47:00,47.0,38.5,30.32,West,276,0.0,0.0,72,0.00,,---,0.00,VWS V14.01,2013-03-15 02:47:00,
2013-03-14 21:52:00,47.0,38.5,30.32,West,276,0.0,0.0,72,0.00,,---,0.00,VWS V14.01,2013-03-15 02:52:00,
2013-03-14 21:57:00,46.9,38.4,30.32,West,276,0.0,0.0,72,0.00,,---,0.00,VWS V14.01,2013-03-15 02:57:00,
2013-03-14 22:00:00,46.8,38.3,30.32,West,275,0.0,0.0,72,0.00,,---,0.00,VWS V14.01,2013-03-15 03:00:00,
2013-03-14 22:02:00,46.7,38.2,30.32,West,276,0.0,0.0,72,0.00,,---,0.00,VWS V14.01,2013-03-15 03:02:00,
2013-03-14 22:07:00,46.4,38.2,30.32,West,275,0.0,0.0,73,0.00,,---,0.00,VWS V14.01,2013-03-15 03:07:00,
2013-03-14 22:12:00,46.1,38.3,30.32,West,276,0.0,0.0,74,0.00,,---,0.00,VWS V14.01,2013-03-15 03:12:00,
2013-03-14 22:17:00,45.9,38.4,30.32,West,276,0.0,0.0,75,0.00,,---,0.00,VWS V14.01,2013-03-15 03:17:00,
2013-03-14 22:22:00,46.0,38.5,30.32,West,276,0.0,0.0,75,0.00,,---,0.00,VWS V14.01,2013-03-15 03:22:00,
2013-03-14 22:27:00,45.9,38.4,30.32,West,276,0.0,0.0,75,0.00,,---,0.00,VWS V14.01,2013-03-15 03:27:00,
2013-03-14 22:30:00,45.8,38.3,30.32,West,276,0.0,0.0,75,0.00,,---,0.00,VWS V14.01,2013-03-15 03:30:00,
2013-03-14 22:32:00,45.7,38.2,30.32,West,276,0.0,0.0,75,0.00,,---,0.00,VWS V14.01,2013-03-15 03:32:00,
2013-03-14 22:37:00,45.6,38.2,30.32,West,275,0.0,0.0,75,0.00,,---,0.00,VWS V14.01,2013-03-15 03:37:00,
2013-03-14 22:42:00,45.3,38.2,30.31,West,275,0.0,0.0,76,0.00,,---,0.00,VWS V14.01,2013-03-15 03:42:00,
2013-03-14 22:47:00,45.2,38.4,30.31,West,275,0.0,0.0,77,0.00,,---,0.00,VWS V14.01,2013-03-15 03:47:00,
2013-03-14 22:52:00,44.9,38.1,30.31,West,275,0.0,0.0,77,0.00,,---,0.00,VWS V14.01,2013-03-15 03:52:00,
2013-03-14 22:57:00,44.5,37.8,30.31,West,276,0.0,0.0,77,0.00,,---,0.00,VWS V14.01,2013-03-15 03:57:00,
2013-03-14 23:00:00,44.4,38.0,30.31,West,275,0.0,0.0,78,0.00,,---,0.00,VWS V14.01,2013-03-15 04:00:00,
2013-03-14 23:05:00,44.1,38.0,30.31,West,276,0.0,0.0,79,0.00,,---,0.00,VWS V14.01,2013-03-15 04:05:00,
2013-03-14 23:10:00,43.9,37.8,30.31,West,276,0.0,0.0,79,0.00,,---,0.00,VWS V14.01,2013-03-15 04:10:00,
2013-03-14 23:15:00,43.6,37.8,30.31,West,276,0.0,0.0,80,0.00,,---,0.00,VWS V14.01,2013-03-15 04:15:00,
2013-03-14 23:20:00,43.4,37.7,30.31,West,276,0.0,0.0,80,0.00,,---,0.00,VWS V14.01,2013-03-15 04:20:00,
2013-03-14 23:25:00,43.2,37.8,30.31,West,276,0.0,0.0,81,0.00,,---,0.00,VWS V14.01,2013-03-15 04:25:00,
2013-03-14 23:30:00,43.2,38.1,30.31,West,276,0.0,0.0,82,0.00,,---,0.00,VWS V14.01,2013-03-15 04:30:00,
2013-03-14 23:35:00,43.2,38.1,30.31,West,276,0.0,0.0,82,0.00,,---,0.00,VWS V14.01,2013-03-15 04:35:00,
2013-03-14 23:40:00,43.2,38.1,30.31,West,276,0.0,0.0,82,0.00,,---,0.00,VWS V14.01,2013-03-15 04:40:00,
2013-03-14 23:45:00,43.3,38.5,30.31,West,276,0.0,0.0,83,0.00,,---,0.00,VWS V14.01,2013-03-15 04:45:00,
2013-03-14 23:50:00,43.4,38.3,30.31,West,275,0.0,0.0,82,0.00,,---,0.00,VWS V14.01,2013-03-15 04:50:00,
2013-03-14 23:55:00,43.6,38.5,30.31,West,276,0.0,0.0,82,0.00,,---,0.00,VWS V14.01,2013-03-15 04:55:00,